Location: La Brionne
(46.1728°N, 1.7849°E)
Time: 20:59:25
(UTC+00:00)

Cosmos 2333 Rocket - Pass Details

Date: 16 June 2021
Orbit: 841 x 861 km, 70.8° (Epoch: 01 August)

Event Time Altitude Azimuth Distance (km) Brightness Sun altitude
Exits shadow 21:09:02 14° 151° (SSE) 2,204 3.7 -11.1°
Maximum altitude 21:12:43 26° 103° (ESE) 1,614 3.3 -11.5°
Drops below altitude 10° 21:17:23 10° 48° (NE) 2,494 4.7 -12.0°
Sets 21:20:11 0° 37° (NE) 3,431 5.6 -12.2°
